Wind_Speed
3 2 2 2 2 1 1 1 1 1 1 1 2 2 2 3 3 3 3 3 2 2 2 2 2 2 2 2 2 2 3 3 4 4 5 5 5 5 6 6 7 7 7 7 8 8 8 8 9
4 3 3 3 2 2 1 1 1 1 1 1 1 2 3 3 4 4 4 4 3 4 4 4 3 4 4 4 3 3 3 4 4 5 5 6 6 6 7 7 8 8 8 9 9 9 9 10 9
4 4 3 3 3 3 2 2 3 3 2 2 2 3 3 4 4 5 5 5 5 4 5 5 5 5 5 5 5 5 5 5 6 6 6 7 7 8 8 8 9 9 9 9 10 10 10 11 11
5 4 4 4 4 4 3 3 4 4 4 4 4 4 4 5 5 5 6 6 5 5 5 6 5 5 6 6 6 6 7 7 7 8 8 8 8 8 8 9 10 10 10 11 11 11 11 12 13
5 5 5 5 5 5 4 4 5 5 5 5 5 5 5 5 6 6 6 6 6 6 6 6 6 6 6 6 6 7 7 8 8 8 8 8 9 9 9 10 10 10 11 11 12 12 12 13 14
5 5 5 5 6 5 5 5 5 5 5 6 6 6 6 6 7 6 6 6 6 6 7 7 7 7 7 7 7 8 8 9 9 9 9 9 10 10 10 11 11 11 11 12 12 12 13 14 14
5 5 5 6 6 6 6 6 7 6 6 6 6 6 7 7 7 7 7 7 7 7 7 7 7 7 8 8 9 9 9 9 9 9 10 10 10 11 11 11 11 11 12 12 12 13 14 14 14
6 6 6 6 6 6 7 7 7 6 6 6 7 7 7 7 8 8 8 7 7 7 7 8 9 9 8 9 9 9 9 10 10 10 11 11 11 12 12 12 12 12 12 13 13 14 15 15 15
7 7 7 7 7 7 8 7 7 7 7 6 7 7 7 7 8 8 9 9 8 8 8 9 9 9 9 10 10 10 10 11 11 12 12 12 12 12 13 13 13 13 13 13 14 15 15 15 15
7 7 8 8 8 7 8 8 8 7 7 7 7 8 8 8 8 9 9 9 9 9 9 9 9 9 9 10 11 12 12 12 12 13 13 14 13 13 13 14 14 14 14 14 14 14 14 14 14
7 8 8 8 8 9 9 9 8 7 8 8 8 8 8 8 9 9 9 9 9 8 9 9 10 10 10 11 11 12 13 13 13 13 14 14 14 14 14 14 15 15 15 15 14 14 15 14 14
8 8 8 8 9 9 9 9 9 9 9 9 8 8 8 8 8 8 8 8 8 8 9 9 10 10 11 11 12 13 14 14 14 14 14 14 14 14 14 15 15 15 16 15 15 15 15 14 14
8 9 9 9 9 9 9 9 10 10 10 10 10 9 9 8 8 7 8 8 9 10 10 11 12 12 12 12 13 13 14 14 15 15 15 14 14 14 15 14 15 15 15 16 14 14 14 14 14
7 8 8 8 8 8 8 9 10 10 11 11 11 10 10 9 9 9 9 9 10 10 11 11 12 12 13 13 13 13 14 14 15 15 15 14 14 14 14 14 15 14 14 13 13 13 14 14 14
7 8 8 9 9 9 9 9 9 10 10 10 10 10 10 9 9 9 9 10 11 11 12 12 12 12 12 13 13 13 14 15 15 15 15 14 14 14 14 14 14 13 13 13 13 12 13 13 12
8 8 9 9 10 10 10 10 10 10 10 10 10 11 11 10 10 10 10 11 12 12 13 13 13 13 13 13 13 14 14 14 14 14 14 14 14 14 14 14 14 14 14 14 13 13 13 13 13
8 9 9 10 10 11 10 10 10 10 10 10 11 11 11 11 11 11 11 12 12 12 12 13 13 14 14 14 14 14 14 14 14 15 15 15 15 14 14 14 14 14 14 13 13 13 13 13 13
9 10 10 10 10 11 11 10 10 10 10 11 11 12 12 12 11 12 12 13 13 13 13 14 14 14 14 14 14 15 15 15 15 15 16 16 16 15 14 14 14 14 14 14 13 13 13 13 13
10 10 10 10 11 11 11 11 11 11 11 12 12 12 13 12 12 13 13 13 14 14 14 14 15 15 15 15 15 16 16 16 16 16 16 16 17 16 15 15 15 15 15 15 15 14 14 13 13
11 11 11 11 12 12 12 13 13 13 13 13 13 13 13 13 14 14 14 14 14 15 15 15 15 15 15 15 16 16 17 17 17 17 17 17 17 17 17 16 16 15 15 15 16 15 15 15 14
12 12 12 12 12 13 14 14 13 13 13 14 14 14 14 15 15 15 15 15 15 15 15 15 16 16 16 17 17 17 18 18 18 18 18 18 18 18 18 18 17 17 17 16 16 16 16 16 16
13 13 13 14 14 14 15 14 12 12 13 14 15 15 15 16 16 16 16 16 16 17 17 17 17 17 18 18 18 18 18 18 19 19 19 19 19 19 19 18 18 18 17 17 17 18 18 18 18
13 14 14 15 15 15 15 16 13 13 13 14 15 16 16 16 16 17 17 17 17 18 18 18 19 18 19 19 19 19 19 20 20 20 20 20 19 20 20 19 19 18 18 18 18 18 19 20 20
15 16 16 16 16 16 16 17 15 14 14 15 16 17 17 17 17 18 18 18 18 18 19 19 20 20 20 20 20 20 20 20 21 21 21 22 21 21 21 20 20 20 20 20 20 19 19 20 21
16 17 18 19 19 18 17 18 17 17 17 17 18 18 19 18 19 19 19 19 19 19 20 20 21 21 21 21 21 21 21 21 22 22 22 22 22 22 22 22 20 20 21 21 21 20 20 21 22
17 18 19 21 21 20 19 19 18 18 19 19 20 20 20 20 20 20 20 20 20 20 20 21 21 22 21 21 21 21 22 22 23 23 23 23 22 22 23 23 22 22 22 22 21 21 21 21 22
19 20 20 21 22 21 21 20 19 20 21 21 21 21 22 22 21 21 21 21 21 22 22 22 22 22 21 21 22 22 23 23 23 23 23 23 23 23 23 23 23 23 22 22 22 22 22 22 22
20 20 21 22 23 23 22 20 20 20 21 22 22 22 22 22 23 23 23 23 23 23 23 23 22 22 22 22 23 23 23 23 23 24 24 24 24 24 24 24 23 23 23 23 23 23 23 22 23
20 21 22 23 23 24 24 22 22 22 23 23 23 23 24 24 24 24 24 24 23 23 23 24 24 23 23 24 24 24 24 24 24 25 25 25 25 24 24 24 23 23 23 23 23 23 23 23 23
22 22 22 24 24 25 26 24 24 24 24 24 24 25 25 25 25 25 25 25 25 24 25 25 25 25 25 25 25 25 25 25 26 26 27 27 26 25 25 24 24 24 23 23 24 24 24 23 24
Wind_Direction
213 200 201 197 190 161 147 98 66 75 46 62 60 39 23 11 0 360 358 344 327 319 320 317 309 312 321 322 317 309 294 299 302 301 302 305 306 305 306 297 290 289 281 277 278 275 275 275 272
228 225 222 214 210 223 234 265 319 339 4 7 8 5 3 355 348 342 341 334 312 300 294 294 296 301 305 312 310 303 300 296 303 306 303 301 302 305 306 305 290 286 280 276 278 277 275 276 273
229 227 230 227 227 233 252 264 286 285 300 302 324 324 322 330 330 326 325 319 306 292 289 288 291 297 301 302 302 302 301 295 297 303 304 298 298 300 300 300 296 289 280 277 277 279 277 279 278
233 230 228 232 236 247 266 278 285 281 281 286 296 303 307 304 310 313 313 310 298 285 283 284 289 296 300 298 295 297 295 294 296 299 299 299 300 300 300 297 295 291 284 279 276 275 278 276 274
233 229 230 237 247 257 271 281 289 279 282 288 290 293 299 303 304 306 306 303 297 287 279 282 284 288 295 297 297 294 295 296 295 296 296 297 299 300 298 296 296 293 287 284 281 278 275 277 277
234 234 242 251 257 264 271 278 282 278 282 286 288 291 295 298 298 301 303 299 293 287 279 279 281 284 289 291 293 295 296 298 297 294 295 296 298 299 297 293 294 292 288 282 280 279 276 277 278
239 244 252 259 264 271 273 276 281 282 279 283 286 288 293 293 291 291 293 292 287 282 279 278 278 281 287 290 292 296 297 296 296 296 295 297 298 299 299 294 292 291 288 283 279 279 278 278 278
246 255 257 258 262 273 277 279 282 278 276 278 282 289 293 294 292 290 289 286 284 284 283 279 278 280 285 289 291 292 293 294 293 294 295 295 295 294 295 292 289 289 289 282 281 280 278 278 277
250 254 258 259 263 270 276 280 279 279 278 277 279 286 289 289 288 289 289 286 287 285 285 286 286 287 288 287 289 290 291 293 294 293 293 293 293 293 291 291 289 288 288 283 281 279 277 277 276
255 257 264 266 269 271 275 277 280 280 278 278 280 285 286 287 287 287 288 288 286 285 285 286 286 289 290 290 290 290 292 293 293 292 293 293 293 293 292 291 290 289 287 285 281 278 276 274 273
261 264 269 269 270 271 276 282 282 283 283 283 284 287 287 287 286 286 286 285 284 283 284 287 287 289 290 291 292 294 294 294 292 290 291 292 292 291 290 290 290 289 288 285 281 279 276 273 272
265 267 271 273 273 273 278 285 286 286 289 290 284 281 283 286 287 284 284 284 285 285 283 286 289 292 292 293 296 296 296 296 295 294 294 294 294 292 292 291 291 290 288 285 283 279 278 276 275
270 270 272 276 278 278 282 285 287 290 291 290 284 279 277 279 280 283 285 284 284 285 285 286 288 290 293 295 296 295 295 297 297 297 296 295 293 293 293 291 292 292 291 289 284 278 275 275 276
271 268 269 274 279 284 288 290 290 289 289 288 284 282 281 280 277 280 282 281 280 282 286 287 289 291 294 295 295 296 297 298 298 297 296 296 295 294 293 291 290 290 290 289 286 282 280 277 276
273 271 272 272 277 282 284 287 289 290 290 287 282 282 282 281 282 283 282 280 280 283 285 287 290 291 290 293 296 298 298 299 299 299 298 296 296 296 295 292 289 289 288 288 285 281 278 278 278
278 277 275 274 277 279 282 286 285 285 286 283 278 279 279 281 283 282 281 280 281 283 285 288 291 292 290 291 294 297 299 300 301 300 298 296 296 297 296 293 291 289 289 288 284 282 280 279 279
279 278 279 277 278 277 278 281 281 281 282 285 284 282 281 282 284 282 282 283 282 284 286 288 289 291 290 290 291 295 296 296 298 299 299 298 298 297 297 296 294 290 290 290 287 285 282 280 279
282 282 281 280 277 276 275 275 276 278 279 281 284 284 285 286 286 284 285 286 284 285 285 285 286 288 288 288 290 292 293 293 294 295 297 298 298 297 297 295 293 290 288 286 286 285 281 280 278
279 280 282 282 276 276 276 276 277 276 279 281 283 285 284 284 284 285 285 284 284 283 283 284 286 287 286 288 291 293 293 293 294 294 294 296 296 295 294 295 294 291 290 287 287 283 282 281 280
278 278 282 283 281 277 277 277 277 277 280 283 282 284 284 283 283 283 284 285 284 284 285 286 288 288 286 287 288 289 291 292 292 293 294 295 295 292 291 293 293 292 290 288 286 282 282 282 279
279 281 282 283 283 280 279 279 280 280 281 281 281 282 284 283 283 284 285 285 284 285 285 286 289 289 287 285 285 286 288 290 292 292 293 293 294 292 291 290 290 290 290 289 287 284 279 279 277
281 284 282 282 284 284 284 282 283 285 285 283 284 284 286 286 284 284 284 284 283 284 284 285 286 288 287 286 284 285 287 288 288 288 289 291 292 294 292 290 289 289 289 288 289 286 283 280 280
283 283 286 286 286 285 286 287 288 289 287 287 287 287 287 285 285 285 284 283 282 282 284 286 285 285 286 285 284 284 284 285 286 286 287 289 290 291 291 288 286 286 287 287 286 284 282 279 280
283 283 284 287 287 286 289 289 290 291 291 291 289 289 289 288 287 287 286 283 282 282 283 286 285 284 283 283 282 281 283 284 284 285 286 287 288 288 289 287 285 284 285 286 285 283 282 279 280
282 285 285 287 288 289 290 289 292 291 290 291 292 292 290 290 289 288 287 285 282 282 284 284 285 284 284 283 283 282 283 284 284 284 285 286 286 286 287 286 286 286 286 285 284 282 280 278 278
282 285 287 289 290 288 287 290 293 289 289 290 291 292 292 291 289 287 286 285 283 283 283 283 284 284 285 284 285 285 284 285 284 283 283 284 284 283 284 285 285 287 288 287 285 284 281 277 277
282 283 286 288 288 288 289 291 291 289 288 289 291 292 292 292 290 287 286 284 283 282 282 282 283 283 284 285 286 287 285 285 285 284 284 285 285 283 282 283 284 284 284 284 285 285 282 278 277
280 283 284 286 287 290 290 292 293 290 291 291 290 291 291 291 290 288 287 286 283 282 281 281 282 282 283 284 285 286 285 287 287 287 286 285 285 284 283 282 282 282 282 283 283 283 284 282 280
277 279 281 283 285 288 290 292 294 294 294 294 293 292 291 290 289 287 285 286 284 281 280 280 279 280 283 284 284 285 285 284 286 288 286 285 284 284 282 280 280 281 283 283 283 284 284 283 282
279 279 280 282 284 286 288 292 294 293 293 293 292 291 290 289 290 288 286 285 283 281 281 280 279 279 280 282 283 283 283 284 285 287 286 285 285 284 282 280 279 280 282 283 283 283 283 283 283
Height
5867 5868 5869 5871 5872 5871 5871 5872 5872 5872 5872 5872 5872 5872 5872 5872 5873 5875 5872 5871 5871 5871 5871 5871 5870 5870 5870 5870 5870 5870 5869 5869 5869 5869 5869 5869 5868 5868 5868 5868 5867 5867 5867 5867 5868 5868 5868 5868 5868
5867 5868 5870 5871 5871 5871 5872 5872 5872 5872 5872 5872 5872 5872 5872 5872 5872 5872 5871 5870 5870 5870 5870 5870 5870 5870 5869 5869 5869 5869 5869 5868 5868 5868 5868 5867 5867 5867 5866 5866 5866 5866 5866 5866 5866 5866 5866 5866 5866
5867 5868 5870 5870 5870 5871 5872 5872 5872 5872 5872 5872 5872 5872 5872 5871 5871 5870 5870 5869 5869 5869 5869 5869 5869 5869 5868 5868 5868 5868 5868 5867 5867 5867 5866 5866 5866 5865 5865 5865 5864 5864 5864 5864 5864 5864 5864 5864 5863
5867 5869 5870 5870 5870 5871 5871 5872 5872 5871 5872 5872 5872 5872 5871 5871 5870 5870 5869 5868 5867 5868 5868 5868 5868 5868 5867 5867 5867 5866 5866 5866 5866 5865 5865 5864 5864 5863 5863 5863 5862 5862 5862 5861 5861 5861 5861 5861 5861
5867 5868 5869 5869 5870 5871 5871 5871 5871 5871 5871 5871 5871 5871 5870 5870 5870 5869 5868 5868 5867 5867 5867 5867 5867 5866 5866 5866 5865 5865 5865 5864 5864 5863 5863 5862 5862 5861 5861 5861 5860 5860 5859 5859 5859 5859 5859 5859 5859
5867 5867 5869 5869 5870 5870 5870 5870 5870 5870 5870 5870 5870 5870 5870 5869 5869 5868 5867 5867 5867 5866 5866 5865 5865 5865 5865 5864 5864 5863 5863 5863 5862 5862 5861 5860 5860 5859 5859 5859 5858 5857 5857 5857 5856 5856 5856 5856 5856
5867 5867 5867 5868 5869 5869 5869 5869 5869 5869 5869 5869 5869 5869 5868 5868 5868 5867 5867 5866 5865 5865 5865 5864 5864 5863 5863 5863 5862 5862 5861 5861 5860 5860 5859 5858 5858 5857 5857 5856 5856 5855 5854 5854 5853 5853 5853 5853 5853
5865 5867 5866 5867 5868 5868 5868 5868 5868 5868 5868 5868 5868 5867 5867 5867 5866 5866 5865 5865 5864 5864 5863 5863 5862 5862 5861 5861 5860 5860 5859 5859 5858 5857 5857 5856 5855 5855 5854 5854 5853 5852 5851 5850 5850 5850 5850 5850 5849
5865 5867 5865 5866 5866 5867 5867 5867 5867 5867 5867 5867 5866 5866 5865 5865 5864 5864 5864 5863 5863 5862 5862 5861 5860 5860 5859 5859 5858 5858 5857 5856 5856 5855 5854 5854 5853 5852 5852 5851 5850 5849 5848 5847 5846 5846 5846 5846 5846
5864 5864 5865 5865 5865 5865 5865 5865 5865 5865 5865 5865 5865 5864 5864 5863 5863 5862 5862 5861 5861 5860 5860 5859 5858 5858 5857 5857 5856 5855 5855 5854 5853 5852 5852 5851 5850 5849 5848 5847 5847 5846 5845 5844 5843 5843 5843 5843 5842
5862 5863 5863 5863 5863 5863 5863 5863 5863 5863 5863 5863 5863 5863 5862 5861 5861 5860 5860 5859 5859 5858 5858 5857 5857 5856 5855 5855 5854 5853 5852 5851 5850 5850 5849 5848 5847 5846 5845 5844 5843 5842 5841 5840 5840 5840 5840 5840 5839
5861 5861 5861 5861 5861 5862 5862 5862 5861 5862 5862 5861 5861 5860 5860 5860 5859 5859 5858 5857 5857 5856 5856 5855 5855 5854 5853 5852 5851 5851 5850 5849 5848 5847 5846 5845 5844 5843 5842 5841 5840 5839 5837 5836 5836 5836 5836 5836 5836
5859 5859 5860 5860 5860 5860 5860 5860 5860 5859 5859 5859 5859 5858 5858 5858 5857 5857 5856 5855 5855 5854 5854 5853 5852 5852 5851 5850 5849 5848 5847 5846 5845 5844 5843 5842 5841 5840 5839 5837 5836 5835 5833 5832 5831 5831 5831 5832 5832
5857 5857 5857 5858 5858 5858 5858 5858 5858 5857 5857 5857 5856 5856 5856 5855 5855 5854 5854 5853 5853 5852 5852 5851 5850 5849 5848 5847 5846 5845 5844 5843 5842 5841 5840 5839 5837 5836 5835 5834 5833 5832 5830 5829 5827 5827 5828 5828 5828
5855 5856 5856 5856 5856 5856 5857 5857 5856 5855 5855 5854 5854 5854 5853 5853 5853 5852 5852 5851 5850 5850 5849 5848 5848 5847 5846 5845 5844 5842 5841 5840 5839 5838 5837 5835 5834 5833 5832 5831 5830 5829 5827 5826 5825 5824 5824 5824 5825
5854 5855 5855 5855 5854 5854 5856 5855 5854 5853 5853 5852 5852 5851 5851 5850 5850 5850 5849 5848 5848 5847 5846 5846 5845 5844 5843 5842 5841 5840 5838 5837 5836 5835 5834 5832 5831 5830 5829 5828 5827 5826 5825 5823 5822 5822 5822 5822 5822
5852 5853 5853 5853 5852 5852 5852 5852 5852 5851 5850 5850 5849 5848 5848 5848 5847 5847 5846 5846 5845 5844 5843 5843 5842 5841 5840 5839 5838 5837 5835 5834 5833 5832 5830 5829 5828 5827 5825 5824 5823 5822 5822 5821 5820 5819 5819 5819 5819
5851 5851 5850 5850 5850 5850 5850 5850 5849 5849 5848 5847 5846 5846 5845 5845 5844 5844 5843 5842 5842 5841 5840 5840 5839 5838 5837 5835 5834 5833 5832 5831 5829 5828 5827 5826 5824 5823 5822 5821 5820 5819 5818 5817 5817 5816 5816 5816 5815
5848 5848 5848 5848 5848 5847 5847 5847 5847 5846 5845 5844 5844 5843 5842 5841 5841 5840 5840 5839 5839 5838 5837 5836 5835 5834 5833 5832 5831 5830 5829 5827 5826 5825 5823 5822 5821 5819 5818 5817 5816 5815 5814 5813 5813 5813 5812 5812 5812
5846 5846 5845 5845 5845 5845 5844 5844 5844 5843 5842 5842 5841 5840 5839 5838 5837 5837 5836 5835 5835 5834 5833 5832 5831 5830 5829 5828 5827 5826 5825 5824 5822 5821 5820 5818 5817 5815 5814 5813 5812 5811 5810 5809 5809 5808 5808 5808 5808
5844 5844 5843 5842 5842 5841 5841 5841 5841 5840 5838 5838 5837 5836 5835 5835 5834 5833 5832 5831 5831 5830 5829 5828 5827 5826 5825 5824 5823 5822 5820 5819 5818 5817 5815 5814 5813 5811 5810 5809 5807 5806 5806 5805 5804 5804 5804 5803 5803
5842 5841 5840 5839 5838 5838 5838 5837 5838 5836 5835 5834 5833 5832 5832 5831 5830 5829 5828 5827 5826 5826 5825 5824 5823 5822 5821 5819 5818 5817 5816 5815 5814 5812 5811 5809 5808 5807 5805 5804 5803 5802 5801 5800 5799 5799 5798 5798 5797
5839 5838 5837 5836 5835 5835 5834 5833 5835 5832 5831 5830 5829 5828 5827 5827 5826 5825 5824 5823 5822 5821 5820 5819 5818 5817 5816 5814 5813 5812 5811 5810 5808 5807 5806 5804 5803 5801 5800 5799 5798 5797 5796 5795 5794 5794 5793 5792 5792
5835 5835 5834 5832 5832 5832 5831 5830 5830 5829 5827 5826 5825 5824 5823 5822 5821 5820 5819 5818 5817 5816 5815 5814 5813 5811 5810 5809 5808 5806 5805 5804 5802 5801 5800 5798 5797 5796 5794 5793 5792 5791 5790 5789 5789 5788 5787 5787 5786
5832 5831 5830 5829 5828 5828 5827 5826 5827 5825 5823 5822 5821 5819 5818 5817 5816 5815 5814 5812 5811 5810 5809 5808 5807 5805 5804 5802 5801 5800 5799 5797 5796 5795 5794 5792 5791 5789 5788 5787 5786 5785 5784 5783 5782 5782 5781 5780 5780
5828 5827 5827 5825 5824 5823 5822 5822 5823 5820 5818 5817 5816 5814 5813 5811 5810 5809 5808 5807 5805 5804 5803 5802 5800 5799 5798 5796 5795 5794 5792 5791 5789 5788 5787 5785 5784 5783 5781 5780 5779 5778 5777 5776 5776 5775 5774 5774 5773
5823 5823 5822 5821 5819 5818 5817 5818 5817 5815 5814 5812 5810 5809 5807 5806 5804 5803 5801 5800 5799 5798 5796 5795 5794 5793 5791 5790 5789 5787 5785 5784 5782 5781 5780 5778 5777 5776 5774 5774 5773 5772 5771 5770 5769 5768 5767 5767 5766
5819 5818 5817 5815 5814 5812 5812 5812 5812 5810 5808 5807 5805 5803 5801 5800 5798 5796 5794 5793 5792 5791 5790 5788 5787 5786 5785 5784 5782 5780 5778 5777 5775 5774 5772 5771 5770 5769 5767 5766 5765 5764 5764 5763 5762 5762 5761 5760 5759
5814 5813 5812 5810 5809 5808 5806 5809 5806 5804 5802 5801 5799 5797 5795 5793 5791 5789 5788 5786 5785 5784 5782 5781 5780 5779 5778 5777 5775 5773 5771 5770 5768 5767 5765 5763 5762 5761 5759 5759 5758 5757 5757 5756 5755 5754 5753 5753 5752
5808 5808 5807 5806 5804 5802 5801 5804 5800 5798 5796 5794 5792 5790 5788 5786 5784 5782 5780 5779 5778 5777 5775 5774 5773 5772 5771 5770 5768 5766 5764 5763 5761 5759 5757 5756 5754 5753 5752 5751 5750 5750 5749 5748 5748 5747 5746 5746 5745